DW8785 Weather Reports


time (UTC)temp
C
wind
direction
speed
KPH
gust
KPH
rain 1hr
cm
rain 24hr
cm
rain mn
cm
humidity
%
barometer
mb
20260507044551 8 281 22.5 0.0 0.00 0.00 0.00 80 1010.2
20260507043044 9 277 25.7 0.0 0.00 0.00 0.00 76 1010.0
20260507041540 9 288 16.1 0.0 0.00 0.00 0.00 74 1009.9
20260507040040 9 261 12.9 0.0 0.00 0.00 0.00 74 1010.0
20260507034532 9 357 12.9 0.0 0.00 0.00 0.00 75 1010.0
20260507033027 9 285 14.5 0.0 0.00 0.00 0.00 74 1009.7
20260507031523 9 299 8.0 0.0 0.00 0.00 0.00 74 1009.7
20260507030019 9 299 9.7 0.0 0.00 0.00 0.00 77 1009.3
20260507024515 9 315 4.8 0.0 0.00 0.00 0.00 77 1009.2
20260507023009 10 0 3.2 0.0 0.00 0.00 0.00 76 1009.2
20260507021511 10 357 19.3 0.0 0.00 0.00 0.00 74 1009.1
20260507020002 10 281 25.7 0.0 0.00 0.00 0.00 75 1009.1
20260507014608 10 199 22.5 0.0 0.00 0.00 0.00 80 1009.2
20260507013053 9 188 30.6 0.0 0.00 0.00 0.00 83 1009.1
20260507011600 9 278 29.0 0.0 0.00 0.00 0.00 83 1009.1
20260507010045 10 280 29.0 0.0 0.00 0.00 0.00 81 1008.3
20260507004541 10 282 27.4 0.0 0.00 0.00 0.00 80 1008.7
20260507003035 10 356 29.0 0.0 0.00 0.00 0.00 81 1008.8
20260507001541 9 356 22.5 0.0 0.00 0.00 0.00 84 1009.2
20260507000027 9 285 24.1 0.0 0.00 0.00 0.00 84 1009.4
20260506234530 10 357 29.0 0.0 0.00 0.00 0.00 77 1009.3
20260506233018 10 357 29.0 0.0 0.00 0.00 0.00 76 1009.6
20260506231514 10 275 22.5 0.0 0.00 0.00 0.00 80 1009.3
20260506230011 10 302 25.7 0.0 0.00 0.00 0.00 80 1009.5
20260506224507 9 282 22.5 0.0 0.00 0.00 0.00 88 1009.8
20260506223101 9 353 19.3 0.0 0.00 0.00 0.00 89 1009.7
20260506221556 8 198 17.7 0.0 0.00 0.00 0.00 96 1009.8
20260506214548 8 353 16.1 0.0 0.00 0.00 5.44 98 1009.8
20260506213045 9 188 14.5 0.0 0.00 0.00 5.44 97 1009.9
20260506211540 9 186 12.9 0.0 0.00 0.00 5.44 96 1010.1
20260506210036 10 189 12.9 0.0 0.00 0.00 5.44 93 1010.0
20260506204534 10 356 17.7 0.0 0.00 0.00 5.44 89 1009.6
20260506203034 10 356 22.5 0.0 0.00 0.00 5.44 84 1009.6
20260506201524 10 354 20.9 0.0 0.00 0.00 5.44 87 1009.5
20260506200024 10 354 20.9 0.0 0.00 0.00 5.44 88 1009.2
20260506194516 11 354 24.1 0.0 0.00 0.00 5.44 85 1009.1
20260506193010 11 189 24.1 0.0 0.00 0.00 5.44 84 1008.6
20260506191507 11 353 25.7 0.0 0.00 0.00 5.44 83 1008.3
20260506190004 11 352 20.9 0.0 0.00 0.00 5.44 85 1008.1
20260506184602 11 353 17.7 0.0 0.00 0.00 5.44 87 1008.1
20260506183059 11 352 16.1 0.0 0.00 0.00 5.44 87 1008.0
20260506181556 11 340 17.7 0.0 0.00 0.00 5.44 89 1008.0
20260506180047 11 272 20.9 0.0 0.00 0.00 5.44 89 1008.0
20260506174544 11 285 17.7 0.0 0.00 0.00 5.44 91 1007.8
20260506173047 11 352 16.1 0.0 0.00 0.00 5.44 92 1008.0
20260506171535 11 278 12.9 0.0 0.00 0.00 5.41 97 1007.8
20260506170027 11 222 11.3 0.0 0.00 0.00 5.41 97 1007.9
20260506164524 11 352 17.7 0.0 0.00 0.00 5.38 94 1007.9
20260506163037 11 272 20.9 0.0 0.00 0.00 5.36 91 1007.7
20260506161515 11 352 11.3 0.0 0.00 0.00 5.33 97 1007.8
20260506160010 12 198 8.0 0.0 0.00 0.00 5.31 95 1007.8
20260506154525 12 196 6.4 0.0 0.00 0.00 5.28 93 1007.8
20260506153001 13 182 12.9 0.0 0.00 0.00 5.28 88 1007.7
20260506151556 12 299 8.0 0.0 0.00 0.00 5.28 88 1007.7
20260506150054 13 203 20.9 0.0 0.00 0.00 5.28 88 1007.6
20260506144552 12 352 25.7 0.0 0.00 0.00 5.28 88 1007.3
20260506143046 11 278 30.6 0.0 0.00 0.00 5.28 90 1007.7
20260506141542 11 352 30.6 0.0 0.00 0.00 5.23 92 1007.6
20260506140038 11 285 27.4 0.0 0.00 0.00 5.18 92 1007.8
20260506134534 13 356 20.9 0.0 0.00 0.00 4.98 85 1007.3
20260506133030 13 347 27.4 0.0 0.00 0.00 4.98 85 1007.3
20260506131529 13 198 33.8 0.0 0.00 0.00 4.98 85 1007.2
20260506130021 13 175 30.6 0.0 0.00 0.00 4.95 82 1006.8
20260506124517 14 256 30.6 0.0 0.00 0.00 4.95 81 1006.5
20260506123011 13 188 30.6 0.0 0.00 0.00 4.95 83 1006.8
20260506121506 13 353 32.2 0.0 0.00 0.00 4.95 83 1006.7
20260506120002 13 195 32.2 0.0 0.00 0.00 4.95 84 1007.2
20260506114558 13 354 30.6 0.0 0.00 0.00 4.95 86 1007.2
20260506113054 13 352 27.4 0.0 0.00 0.00 4.95 89 1007.3
20260506111551 12 189 32.2 0.0 0.00 0.00 4.95 89 1007.3
20260506110046 12 343 30.6 0.0 0.00 0.00 4.95 92 1007.7
20260506104541 12 192 29.0 0.0 0.00 0.00 4.95 95 1007.8
20260506103036 11 347 30.6 0.0 0.00 0.00 4.95 98 1007.7
20260506101532 11 347 27.4 0.0 0.00 0.00 4.95 100 1008.1
20260506100031 12 349 27.4 0.0 0.00 0.00 4.95 100 1008.1
20260506094523 12 188 29.0 0.0 0.00 0.00 4.95 100 1008.0
20260506093018 12 346 25.7 0.0 0.00 0.00 4.95 100 1007.7
20260506091514 12 350 25.7 0.0 0.00 0.00 4.95 100 1007.8
20260506090009 12 344 32.2 0.0 0.00 0.00 4.95 100 1007.5
20260506084505 12 189 30.6 0.0 0.00 0.00 4.95 100 1007.3
20260506083100 12 316 29.0 0.0 0.00 0.00 4.95 100 1007.2
20260506081611 12 188 25.7 0.0 0.00 0.00 4.95 100 1007.3
20260506073045 11 344 19.3 0.0 0.00 0.00 4.95 100 1007.4
20260506071539 11 195 12.9 0.0 0.00 0.00 4.95 100 1007.4
20260506061524 11 141 0.0 0.0 0.00 0.00 4.90 100 1007.6